TimeCST,TemperatureF,Dew PointF,Humidity,Sea Level PressureIn,VisibilityMPH,Wind Direction,Wind SpeedMPH,Gust SpeedMPH,PrecipitationIn,Events,Conditions,WindDirDegrees,DateUTC
12:50 AM,59.0,39.2,48,30.14,10.0,East,11.5,-,N/A,,Mostly Cloudy,90,2013-02-20 06:50:00
1:50 AM,55.4,33.8,44,30.13,10.0,East,12.7,20.7,N/A,,Mostly Cloudy,80,2013-02-20 07:50:00
2:50 AM,55.4,33.8,44,30.13,10.0,ENE,12.7,-,N/A,,Mostly Cloudy,70,2013-02-20 08:50:00
3:50 AM,53.6,35.6,51,30.12,10.0,ENE,10.4,-,N/A,,Mostly Cloudy,70,2013-02-20 09:50:00
4:50 AM,53.6,35.6,51,30.14,10.0,East,10.4,-,N/A,,Mostly Cloudy,80,2013-02-20 10:50:00
5:50 AM,53.6,35.6,51,30.13,10.0,East,12.7,-,N/A,,Mostly Cloudy,80,2013-02-20 11:50:00
6:50 AM,55.4,35.6,47,30.14,10.0,East,11.5,-,N/A,,Overcast,100,2013-02-20 12:50:00
7:50 AM,55.4,44.6,67,30.12,10.0,East,11.5,-,N/A,,Overcast,80,2013-02-20 13:50:00
8:50 AM,57.2,46.4,67,30.09,10.0,East,17.3,-,N/A,,Overcast,80,2013-02-20 14:50:00
9:50 AM,60.8,46.4,59,30.09,10.0,East,13.8,24.2,N/A,,Overcast,100,2013-02-20 15:50:00
10:50 AM,60.8,46.4,59,30.06,10.0,East,21.9,34.5,N/A,,Overcast,100,2013-02-20 16:50:00
11:50 AM,60.8,51.8,72,30.02,10.0,East,25.3,32.2,N/A,,Overcast,100,2013-02-20 17:50:00
1:30 PM,59.0,53.6,82,30.01,2.0,East,11.5,-,N/A,,Overcast,90,2013-02-20 19:30:00
1:50 PM,59.0,53.6,82,29.98,2.0,East,15.0,-,N/A,,Overcast,90,2013-02-20 19:50:00
2:50 PM,59.0,57.2,94,29.94,3.0,East,17.3,-,N/A,,Overcast,100,2013-02-20 20:50:00
3:50 PM,59.0,57.2,94,29.91,3.0,East,16.1,25.3,N/A,,Overcast,90,2013-02-20 21:50:00
4:50 PM,59.0,57.2,94,29.90,3.0,East,16.1,26.5,N/A,,Overcast,90,2013-02-20 22:50:00
5:50 PM,59.0,57.2,94,29.91,9.0,East,13.8,-,N/A,,Drizzle,80,2013-02-20 23:50:00
6:50 PM,59.0,57.2,94,29.89,7.0,East,17.3,25.3,N/A,Rain,Rain,80,2013-02-21 00:50:00
7:50 PM,59.0,59.0,100,29.90,8.0,East,11.5,-,N/A,Rain,Rain,90,2013-02-21 01:50:00
8:50 PM,59.0,59.0,100,29.89,7.0,East,13.8,20.7,N/A,Rain,Rain,90,2013-02-21 02:50:00
9:50 PM,60.8,60.8,100,29.88,8.0,East,11.5,-,N/A,Rain,Light Rain,90,2013-02-21 03:50:00
10:50 PM,62.6,62.6,100,29.86,8.0,ESE,16.1,-,N/A,,Overcast,110,2013-02-21 04:50:00
11:50 PM,62.6,60.8,94,29.82,6.0,ESE,16.1,28.8,N/A,,Overcast,120,2013-02-21 05:50:00